User: anonymous   Login
Location: Kruen
(47.5000°N, 11.5000°E)
Time: 06:33:30
(UTC+02:00)
Language:

ITUPSAT 1 - Orbit

View from above orbital plane
View from above orbital plane
View from above satellite
View from above satellite

Ground track
Ground track

The orbit is defined by the following mean orbital elements,

1 35935U          26110.20524605 +.00000000 +00000-0 +12241-3 0 00005
2 35935  98.4084  16.0880 0008679  62.5913 297.6169 14.60349175    09
Epoch (UTC): 20 April 2026 04:55:33
Eccentricity: 0.0008679
inclination: 98.4084°
perigee height: 686 km
apogee height: 698 km
right ascension of ascending node: 16.0880°
argument of perigee: 62.5913°
revolutions per day: 14.60349175
mean anomaly at epoch: 297.6169°

The dashed part of the orbit path shows where the satellite is in the earth's shadow,  

DLR